Terug naar catalogus

ONEWEB-0435

ActiefCommunicatiePO
NORAD 51632·PAYLOAD·🇬🇧 United Kingdom

Gelanceerd Feb 10, 2022 vanaf Guiana Space Centre

Loading…

Volgende Passages (komende 24 uur)

TLE

VersSource: CelesTrak SupGP

Epoch: Sep 14, 2026, 20:48 UTC

1 51632C 22012L   26257.86682130 -.00001065  00000+0 -30547-2 0  2571
2 51632  87.8909  18.4198 0001743  89.8359  43.3874 13.10379625    15

Volg ONEWEB-0435 in realtime met AllMySat

Download on the App Store